User: anonymous   Login
Location: ?
(35.4996°N, 139.3166°E)
Time: 11:06:51
(UTC+00:00)
Language:

SL-16 R/B - Orbit

View from above orbital plane
View from above orbital plane
View from above satellite
View from above satellite

Ground track
Ground track

The orbit data is extracted from the following two-line orbital elements,

1 27006U 01056F   24165.03658786 -.00000002  00000-0  48912-4 0  9999
2 27006  99.6855 312.1688 0014631 175.4728 292.2025 13.71031951126302
Epoch (UTC): 13 June 2024 00:52:41
Eccentricity: 0.0014631
inclination: 99.6855°
perigee height: 985 km
apogee height: 1006 km
right ascension of ascending node: 312.1688°
argument of perigee: 175.4728°
revolutions per day: 13.71031951
mean anomaly at epoch: 292.2025°
orbit number at epoch: 12630

The dashed part of the orbit path shows where the satellite is in the earth's shadow,  

DLR